Waarnemingen

Advertentie
Mijn weer
Shoreham Airport, Groot Brittannië (3876): temperatuur & dauwpunt: 19.04.2018 11:00:00 - 25.04.2018 11:00:00 (BST)Shoreham Airport, Groot Brittannië (3876): windsnelheid & windstoten: 19.04.2018 11:00:00 - 25.04.2018 11:00:00 (BST)Shoreham Airport, Groot Brittannië (3876): windrichting: 19.04.2018 11:00:00 - 25.04.2018 11:00:00 (BST)Shoreham Airport, Groot Brittannië (3876): luchtdruk: 19.04.2018 11:00:00 - 25.04.2018 11:00:00 (BST)Shoreham Airport, Groot Brittannië (3876): zicht: 19.04.2018 11:00:00 - 25.04.2018 11:00:00 (BST)Shoreham Airport, Groot Brittannië (3876): neerslag: 19.04.2018 11:00:00 - 25.04.2018 11:00:00 (BST)
Datum & Tijd tt [°C] td [°C] ff [km/u] ff [kn] fx [km/u] fx [kn] dd ppp [hPa] vv [km] rr [mm]
25.04.2018 11:00:00 12,0 8,0 28 15 - - ZW - 10 0,0
25.04.2018 10:00:00 13,2 9,7 22 12 - - W 1013,9 10 0,0
25.04.2018 09:00:00 11,3 8,8 21 11 - - W 1013,6 10 0,0
25.04.2018 08:00:00 10,1 9,1 11 6 - - WZW 1013,1 10 0,0
25.04.2018 07:00:00 8,0 7,4 13 7 - - W 1012,9 - 0,0
25.04.2018 06:00:00 6,8 6,2 15 8 - - W 1012,4 - 0,0
25.04.2018 05:00:00 6,8 6,2 15 8 - - W 1011,7 - 0,0
25.04.2018 04:00:00 7,2 6,3 15 8 - - W 1011,4 - 0,0
25.04.2018 03:00:00 8,0 6,9 15 8 - - WZW 1010,9 - 0,0
25.04.2018 02:00:00 10,0 8,4 26 14 - - WNW 1010,6 - 0,0
25.04.2018 01:00:00 11,0 10,6 28 15 54 29 WZW 1010,1 - 0,2
25.04.2018 00:00:00 10,8 10,4 35 19 55 30 ZW 1010,1 - 0,2
24.04.2018 23:00:00 11,1 10,4 31 17 54 29 ZW 1010,4 - 0,0
24.04.2018 22:00:00 10,9 10,4 41 22 55 30 ZW 1011,1 - 0,0
24.04.2018 21:00:00 11,0 10,5 34 18 50 27 ZW 1011,1 - 0,2
24.04.2018 20:00:00 11,1 10,5 29 16 46 25 ZW 1011,6 6 0,0
24.04.2018 19:00:00 11,2 10,3 31 17 - - ZW 1012,5 9 0,0
24.04.2018 18:00:00 11,2 10,3 28 15 - - ZW 1013,2 8 0,0
24.04.2018 17:00:00 11,0 10,4 24 13 - - ZW 1013,8 6 0,2
24.04.2018 16:00:00 10,7 10,3 29 16 48 26 ZW 1014,4 3,0 0,0
24.04.2018 15:00:00 11,3 10,7 31 17 - - ZW 1015,3 1,8 0,0
24.04.2018 14:00:00 11,1 10,3 28 15 - - ZW 1016,1 2,0 0,0
24.04.2018 13:00:00 12,6 10,6 28 15 - - ZW 1016,5 10 0,0
24.04.2018 12:00:00 12,5 10,6 28 15 - - ZW 1017,0 10 0,0
24.04.2018 11:00:00 12,3 10,5 24 13 - - ZW 1017,2 10 0,0
24.04.2018 10:00:00 12,1 10,5 15 8 - - WZW 1017,4 10 0,0
24.04.2018 09:00:00 11,0 10,2 18 10 - - WZW 1017,1 10 0,0
24.04.2018 08:00:00 10,5 9,7 22 12 - - ZW 1016,9 10 0,0
24.04.2018 07:00:00 10,9 9,9 13 7 - - ZW 1016,6 - 0,0
24.04.2018 06:00:00 10,7 9,8 13 7 - - WZW 1016,2 - 0,0
24.04.2018 05:00:00 10,8 9,7 18 10 - - ZW 1016,4 - 0,0
24.04.2018 04:00:00 10,7 9,5 22 12 46 25 ZW 1016,6 - 0,0
24.04.2018 03:00:00 10,7 9,4 28 15 46 25 ZW 1016,4 - 0,0
24.04.2018 02:00:00 10,8 8,9 29 16 - - WZW 1016,7 - 0,0
24.04.2018 01:00:00 10,5 8,6 28 15 46 25 WZW 1017,3 - 0,0
24.04.2018 00:00:00 10,7 8,6 34 18 46 25 WZW 1017,1 - 0,0
23.04.2018 23:00:00 10,5 8,4 29 16 - - ZW 1017,2 - 0,0
23.04.2018 22:00:00 10,2 8,2 22 12 - - ZW 1017,7 - 0,0
23.04.2018 21:00:00 10,2 7,9 22 12 - - WZW 1017,9 - 0,0
23.04.2018 20:00:00 10,3 8,0 24 13 50 27 WZW 1017,6 10 0,0
23.04.2018 19:00:00 10,8 7,8 26 14 - - ZW 1017,5 10 0,0
23.04.2018 18:00:00 12,2 8,0 29 16 46 25 WZW 1017,7 10 0,0
23.04.2018 17:00:00 13,2 8,9 29 16 48 26 WZW 1017,9 10 0,0
23.04.2018 16:00:00 13,0 9,0 29 16 - - WZW 1018,0 10 0,0
23.04.2018 15:00:00 13,0 8,6 29 16 - - ZW 1018,4 10 0,0
23.04.2018 14:00:00 13,1 8,5 34 18 48 26 ZW 1018,8 10 0,0
23.04.2018 13:00:00 13,4 9,3 34 18 46 25 ZW 1018,5 10 0,0
23.04.2018 12:00:00 13,5 9,3 29 16 - - ZW 1018,4 10 0,0
23.04.2018 11:00:00 11,8 8,7 28 15 - - ZW 1018,3 10 0,0
23.04.2018 10:00:00 12,1 9,1 29 16 - - ZW 1018,0 10 0,0
23.04.2018 09:00:00 11,9 8,6 22 12 - - WZW 1017,4 10 0,0
23.04.2018 08:00:00 10,3 8,0 16 9 - - W 1016,9 10 0,0
23.04.2018 07:00:00 7,3 6,0 2 1 - - OZO 1016,8 - 0,0
23.04.2018 06:00:00 5,6 4,7 4 2 - - NO 1015,9 - 0,0
23.04.2018 05:00:00 7,1 5,8 4 2 - - NO 1015,3 - 0,0
23.04.2018 04:00:00 6,5 4,8 5 3 - - WNW 1015,3 - 0,0
23.04.2018 03:00:00 7,0 5,0 11 6 - - NW 1015,0 - 0,0
23.04.2018 02:00:00 8,5 6,2 13 7 - - WNW 1014,8 - 0,0
23.04.2018 01:00:00 7,6 6,9 4 2 - - NW 1014,3 - 0,0
23.04.2018 00:00:00 9,2 8,6 9 5 - - W 1013,8 - 0,0
22.04.2018 23:00:00 10,1 9,3 11 6 - - W 1013,1 - 0,0
22.04.2018 22:00:00 10,3 9,4 11 6 - - WZW 1012,5 - 0,0
22.04.2018 21:00:00 11,0 10,0 21 11 - - WZW 1011,9 - 0,0
22.04.2018 20:00:00 11,0 9,3 22 12 - - ZW 1011,5 - 0,0
22.04.2018 19:00:00 11,1 9,1 24 13 - - ZZW 1011,2 9 0,0
22.04.2018 18:00:00 12,0 10,0 24 13 - - ZW 1011,0 4,0 0,0
22.04.2018 17:00:00 11,7 10,2 28 15 - - ZZW 1010,9 3,0 0,0
22.04.2018 16:00:00 13,2 10,9 26 14 - - ZZW 1010,6 5 0,0
22.04.2018 15:00:00 13,9 11,2 26 14 - - ZZW 1010,4 5 0,0
22.04.2018 14:00:00 14,5 11,3 24 13 - - ZZW 1010,3 7 0,0
22.04.2018 13:00:00 15,2 11,7 18 10 - - ZZW 1010,3 7 0,0
22.04.2018 12:00:00 14,5 11,8 15 8 - - Z 1010,4 6 0,0
22.04.2018 11:00:00 14,2 11,5 15 8 - - Z 1010,7 6 0,0
22.04.2018 10:00:00 14,6 11,6 13 7 - - ZZO 1010,5 5 0,0
22.04.2018 09:00:00 14,1 11,4 9 5 - - ZZO 1010,7 4,0 0,0
22.04.2018 08:00:00 13,4 11,2 5 3 - - Z 1010,8 - 0,0
22.04.2018 07:00:00 11,2 10,3 5 3 - - O 1010,8 - 0,0
22.04.2018 06:00:00 10,9 9,8 5 3 - - ZZO 1011,1 - 0,0
22.04.2018 05:00:00 12,0 9,6 9 5 - - ZZO 1011,5 - 0,0
22.04.2018 04:00:00 13,7 12,0 9 5 - - O 1011,8 - 0,0
22.04.2018 03:00:00 12,9 11,6 4 2 - - NO 1012,4 - 0,0
22.04.2018 02:00:00 13,4 12,4 8 4 - - NNO 1013,4 - 0,0
22.04.2018 01:00:00 14,3 13,3 5 3 - - NW 1014,5 - 0,4
22.04.2018 00:00:00 14,0 12,4 8 4 - - O 1015,4 - 0,6
21.04.2018 23:00:00 16,3 12,2 15 8 - - N 1014,4 - 0,0
21.04.2018 22:00:00 15,7 11,9 8 4 - - NNO 1015,2 - 0,0
21.04.2018 21:00:00 16,5 11,8 16 9 52 28 WZW 1016,8 - 0,0
21.04.2018 20:00:00 16,4 11,7 5 3 - - NNW 1015,9 7 0,0
21.04.2018 19:00:00 18,1 11,8 9 5 - - OZO 1016,1 7 0,0
21.04.2018 18:00:00 19,4 12,5 15 8 - - OZO 1016,6 7 0,0
21.04.2018 17:00:00 19,2 12,2 13 7 - - OZO 1017,6 7 0,0
21.04.2018 16:00:00 17,8 12,5 15 8 - - OZO 1018,4 4,5 0,0
21.04.2018 15:00:00 17,6 11,5 11 6 - - ZO 1019,2 6 0,0
21.04.2018 14:00:00 19,3 12,5 16 9 - - OZO 1019,7 6 0,0
21.04.2018 13:00:00 18,0 11,8 9 5 - - OZO 1020,6 4,2 0,0
21.04.2018 12:00:00 17,2 11,4 11 6 - - ZZO 1021,1 4,2 0,0
21.04.2018 11:00:00 17,6 12,0 9 5 - - ZO 1021,2 4,2 0,0
21.04.2018 10:00:00 17,2 11,2 9 5 - - OZO 1021,5 4,2 0,0
21.04.2018 09:00:00 16,0 12,7 5 3 - - N 1021,6 3,2 0,0
21.04.2018 08:00:00 12,4 10,7 8 4 - - N 1021,9 - 0,0
21.04.2018 07:00:00 10,1 9,2 15 8 - - N 1021,8 - 0,0
21.04.2018 06:00:00 8,5 7,9 8 4 - - N 1021,6 - 0,0
21.04.2018 05:00:00 9,1 8,4 8 4 - - N 1021,5 - 0,0
21.04.2018 04:00:00 10,4 9,4 8 4 - - NNO 1021,9 - 0,0
21.04.2018 03:00:00 9,9 9,0 4 2 - - N 1022,0 - 0,0
21.04.2018 02:00:00 11,2 10,0 2 1 - - NO 1022,2 - 0,0
21.04.2018 01:00:00 9,8 9,1 8 4 - - N 1022,2 - 0,0
21.04.2018 00:00:00 10,0 9,3 2 1 - - N 1022,4 - 0,0
20.04.2018 23:00:00 9,4 8,5 2 1 - - ZZW 1022,6 - 0,0
20.04.2018 22:00:00 10,3 8,9 2 1 - - Z 1022,7 - 0,0
20.04.2018 21:00:00 11,2 8,9 2 1 - - Z 1022,7 - 0,0
20.04.2018 20:00:00 12,9 9,4 4 2 - - ZZO 1022,6 10 0,0
20.04.2018 19:00:00 15,3 10,5 5 3 - - ZZO 1022,3 10 0,0
20.04.2018 18:00:00 15,5 10,5 9 5 - - Z 1022,6 9 0,0
20.04.2018 17:00:00 15,6 11,1 13 7 - - Z 1022,9 8 0,0
20.04.2018 16:00:00 17,5 12,3 11 6 - - Z 1023,1 9 0,0
20.04.2018 15:00:00 18,3 13,0 16 9 - - Z 1023,4 10 0,0
20.04.2018 14:00:00 18,4 12,7 11 6 - - Z 1023,6 9 0,0
20.04.2018 13:00:00 17,3 12,1 16 9 - - Z 1023,9 7 0,0
20.04.2018 12:00:00 16,7 12,0 9 5 - - Z 1024,1 7 0,0
20.04.2018 11:00:00 20,2 13,0 4 2 - - - 1023,8 10 0,0
20.04.2018 10:00:00 18,7 13,6 9 5 - - N 1023,6 10 0,0
20.04.2018 09:00:00 15,1 11,7 16 9 - - N 1023,2 10 0,0
20.04.2018 08:00:00 13,3 11,7 8 4 - - NNW 1023,3 8 0,0
20.04.2018 07:00:00 8,1 7,7 8 4 - - N 1023,0 - 0,0
20.04.2018 06:00:00 7,2 6,8 5 3 - - N 1022,7 - 0,0
20.04.2018 05:00:00 7,0 6,6 2 1 - - N 1022,8 - 0,0
20.04.2018 04:00:00 6,2 5,6 4 2 - - ZW 1022,7 - 0,0
20.04.2018 03:00:00 6,0 5,1 4 2 - - ONO 1023,1 - 0,0
20.04.2018 02:00:00 6,4 5,4 2 1 - - N 1023,1 - 0,0
20.04.2018 01:00:00 7,4 6,3 0 0 - - N 1023,3 - 0,0
20.04.2018 00:00:00 8,4 7,3 2 1 - - ZW 1023,4 - 0,0
19.04.2018 23:00:00 9,0 7,4 2 1 - - NNO 1023,3 - 0,0
19.04.2018 22:00:00 10,0 7,8 2 1 - - N 1023,5 - 0,0
19.04.2018 21:00:00 11,0 8,2 2 1 - - W 1023,6 - 0,0
19.04.2018 20:00:00 12,9 8,8 4 2 - - ZW 1023,2 9 0,0
19.04.2018 19:00:00 15,2 9,1 4 2 - - ZZO 1023,0 9 0,0
19.04.2018 18:00:00 15,4 9,5 8 4 - - Z 1023,2 8 0,0
19.04.2018 17:00:00 16,7 10,0 5 3 - - Z 1023,2 8 0,0
19.04.2018 16:00:00 16,7 10,0 9 5 - - ZZO 1023,5 9 0,0
19.04.2018 15:00:00 17,1 10,6 8 4 - - ZZO 1023,7 9 0,0
19.04.2018 14:00:00 16,7 11,0 9 5 - - ZZO 1023,9 9 0,0
19.04.2018 13:00:00 17,0 9,8 9 5 - - ZZO 1023,8 10 0,0
19.04.2018 12:00:00 17,7 10,7 8 4 - - ZO 1024,1 10 0,0
19.04.2018 11:00:00 15,9 10,5 13 7 - - OZO 1024,2 10 0,0

tt = temperatuur
td = dauwpunt
ff = windsnelheid
fx = windstoten
dd = windrichting
ppp = luchtdruk
vv = zicht
rr = neerslag

Weerstations in de omgeving